Oak Ridge, TN

3:46 PM EDT on September 19, 2017 (GMT -0400)
Oak Ridge

Weather History for KOQT - April, 2013

Change the Weather History Date:

Wednesday, April 17, 2013

  Actual Average (KTYS) Record (KTYS)
Temperature  
Mean Temperature 68 °F -  
Max Temperature 78 °F 70 °F 90 °F (1896)
Min Temperature 60 °F 46 °F 24 °F (1875)
Cooling Degree Days 2    
Growing Degree Days 18 (Base 50)    
Moisture  
Dew Point 60 °F    
Average Humidity 86    
Maximum Humidity 94    
Minimum Humidity 62    
Precipitation  
Precipitation 0.13 in - - ()
Sea Level Pressure  
Sea Level Pressure 30.14 in    
Wind  
Wind Speed 1 mph (ENE)    
Max Wind Speed 15 mph    
Max Gust Speed 25 mph    
Visibility 8 miles    
Events Fog , Rain    
Averages and records for this station are not official NWS values.
T = Trace of Precipitation, MM = Missing Value Source: NWS Daily Summary

Daily Weather History Graph

Daily Weather History Graph

Search for Another Location

Airport or City:

Trip Planner

Search our weather history database for the weather conditions in past years. The results will help you decide how hot, cold, wet, or windy it might be!

Date:

Astronomy

Apr. 17, 2013 Rise Set
Actual Time 7:00 AM EDT 8:12 PM EDT
Civil Twilight 6:34 AM EDT 8:39 PM EDT
Nautical Twilight 6:02 AM EDT 9:10 PM EDT
Astronomical Twilight 5:29 AM EDT 9:43 PM EDT
Moon 12:17 PM EDT (4/17) 1:45 AM EDT (4/17)
Length of Visible Light 14h 04m
Length of Day
13h 11m
Waxing Crescent, 42% of the Moon is Illuminated
Apr 17
Waxing Crescent
Apr 18
First Quarter
Apr 25
Full
May 2
Last Quarter
May 9
New

Hourly Weather History & Observations

Time (EDT) Temp. Dew Point Humidity Pressure Visibility Wind Dir Wind Speed Gust Speed Precip Events Conditions
12:53 AM 69.1 °F 61.0 °F 75% 30.14 in 10.0 mi Calm Calm - N/A   Overcast
1:53 AM 66.9 °F 61.0 °F 81% 30.14 in 10.0 mi Calm Calm - N/A   Overcast
2:53 AM 68.0 °F 62.1 °F 81% 30.14 in 10.0 mi Calm Calm - N/A   Overcast
3:53 AM 66.9 °F 61.0 °F 81% 30.14 in 10.0 mi Calm Calm - N/A   Partly Cloudy
4:53 AM 66.9 °F 61.0 °F 81% 30.14 in 10.0 mi South 3.5 mph - N/A   Mostly Cloudy
5:53 AM 66.0 °F 62.1 °F 87% 30.15 in 8.0 mi Calm Calm - 0.00 in Rain Light Rain
6:53 AM 64.0 °F 62.1 °F 93% 30.17 in 6.0 mi Calm Calm - 0.00 in   Partly Cloudy
7:53 AM 66.0 °F 63.0 °F 90% 30.18 in 5.0 mi Calm Calm - N/A   Overcast
8:53 AM 66.9 °F 63.0 °F 87% 30.21 in 9.0 mi Calm Calm - N/A   Overcast
9:53 AM 70.0 °F 63.0 °F 78% 30.20 in 9.0 mi Calm Calm - N/A   Overcast
10:53 AM 71.1 °F 63.0 °F 75% 30.20 in 10.0 mi Calm Calm - 0.01 in   Mostly Cloudy
11:53 AM 75.9 °F 62.1 °F 62% 30.20 in 10.0 mi Calm Calm - N/A   Mostly Cloudy
12:53 PM 68.0 °F 55.9 °F 65% 30.24 in 10.0 mi NE 15.0 mph 25.3 mph 0.00 in Rain Light Rain
1:53 PM 64.0 °F 60.1 °F 87% 30.24 in 10.0 mi NE 6.9 mph - 0.07 in Rain Light Rain
2:53 PM 63.0 °F 60.1 °F 90% 30.22 in 10.0 mi NE 8.1 mph - 0.00 in Rain Light Rain
3:53 PM 62.1 °F 60.1 °F 93% 30.18 in 5.0 mi NE 4.6 mph - 0.04 in Rain Heavy Rain
4:53 PM 64.0 °F 60.1 °F 87% 30.15 in 10.0 mi Calm Calm - 0.01 in   Mostly Cloudy
5:53 PM 64.0 °F 60.1 °F 87% 30.12 in 10.0 mi Calm Calm - 0.00 in   Clear
6:53 PM 64.0 °F 59.0 °F 84% 30.07 in 10.0 mi Calm Calm - N/A   Clear
7:53 PM 63.0 °F 60.1 °F 90% 30.09 in 10.0 mi Calm Calm - N/A   Clear
8:53 PM 62.1 °F 60.1 °F 93% 30.11 in 10.0 mi Calm Calm - N/A   Clear
9:53 PM 62.1 °F 60.1 °F 93% 30.10 in 9.0 mi Calm Calm - N/A   Clear
10:53 PM 61.0 °F 59.0 °F 93% 30.08 in 6.0 mi Calm Calm - N/A   Clear
11:03 PM 60.8 °F 59.0 °F 94% 30.10 in 3.0 mi Calm Calm - N/A   Scattered Clouds
11:06 PM 60.8 °F 59.0 °F 94% 30.09 in 1.5 mi East 4.6 mph - N/A   Mostly Cloudy
11:15 PM 60.8 °F 59.0 °F 94% 30.09 in 0.5 mi Calm Calm - N/A Fog Fog
11:30 PM 60.8 °F 59.0 °F 94% 30.08 in 2.0 mi Calm Calm - N/A   Overcast
11:38 PM 60.8 °F 59.0 °F 94% 30.08 in 5.0 mi Calm Calm - N/A   Mostly Cloudy
11:53 PM 61.0 °F 59.0 °F 93% 30.04 in 9.0 mi NE 3.5 mph - N/A   Scattered Clouds